,,Stat5,,Stat1,,Stat2,,Stat3,,Stat4,,Wind1,,Wind1,
time,status,PA1M_AVG,status,PR1M_SUM,status,RH1M_AVG,status,SR1M_AVG,status,TA1M_AVG,status,W1dAve1m,status,W1sAve1m,
2002-04-12, 00:00:00,VALID,917.029,VALID,0,VALID,97.6999,VALID,0.0169808,VALID,19.7228,VALID,64,VALID,1.03228,
2002-04-12, 00:01:00,VALID,917.032,VALID,0,VALID,97.5588,VALID,0,VALID,19.6679,VALID,64,VALID,1.09675,
2002-04-12, 00:02:00,VALID,917.022,VALID,0,VALID,97.658,VALID,0,VALID,19.6418,VALID,100,VALID,0.920473,
2002-04-12, 00:03:00,VALID,917.005,VALID,0,VALID,97.8106,VALID,0.0169808,VALID,19.6679,VALID,123,VALID,0.790064,
2002-04-12, 00:04:00,VALID,916.982,VALID,0,VALID,98.0089,VALID,0,VALID,19.7358,VALID,120,VALID,0.880008,
2002-04-12, 00:05:00,VALID,916.964,VALID,0,VALID,97.9034,VALID,-0.0339617,VALID,19.7845,VALID,108,VALID,0.795473,
2002-04-12, 00:06:00,VALID,916.964,VALID,0,VALID,97.8551,VALID,0,VALID,19.8068,VALID,110,VALID,0.969835,
2002-04-12, 00:07:00,VALID,916.951,VALID,0,VALID,97.8245,VALID,0.0169808,VALID,19.8386,VALID,128,VALID,1.10041,
2002-04-12, 00:08:00,VALID,916.936,VALID,0,VALID,97.7635,VALID,0.0169808,VALID,19.9008,VALID,137,VALID,1.22451,
2002-04-12, 00:09:00,VALID,916.925,VALID,0,VALID,97.5893,VALID,-0.0169808,VALID,19.9433,VALID,122,VALID,1.15857,
2002-04-12, 00:10:00,VALID,916.906,VALID,0,VALID,97.4151,VALID,0.0339617,VALID,19.9716,VALID,115,VALID,1.05349,
2002-04-12, 00:11:00,VALID,916.881,VALID,0,VALID,97.148,VALID,0,VALID,20.02,VALID,106,VALID,1.02686,
2002-04-12, 00:12:00,VALID,916.864,VALID,0,VALID,96.7717,VALID,-0.0169808,VALID,20.0171,VALID,94,VALID,1.18032,
2002-04-12, 00:13:00,VALID,916.835,VALID,0,VALID,96.7869,VALID,0,VALID,20.0302,VALID,95,VALID,1.34005,
2002-04-12, 00:14:00,VALID,916.806,VALID,0,VALID,96.6954,VALID,-0.0169808,VALID,20.0752,VALID,106,VALID,1.13577,
2002-04-12, 00:15:00,VALID,916.347,VALID,0,VALID,96.2083,VALID,0,VALID,20.0944,VALID,111,VALID,1.41681,
2002-04-12, 00:16:00,VALID,916.738,VALID,0,VALID,95.6806,VALID,0,VALID,20.1234,VALID,115,VALID,1.35457,
2002-04-12, 00:17:00,VALID,916.698,VALID,0,VALID,95.2623,VALID,0,VALID,20.1498,VALID,122,VALID,1.17296,
2002-04-12, 00:18:00,VALID,916.68,VALID,0,VALID,94.9253,VALID,0,VALID,20.1756,VALID,119,VALID,1.05389,
2002-04-12, 00:19:00,VALID,916.674,VALID,0,VALID,94.7536,VALID,-0.0169808,VALID,20.1848,VALID,128,VALID,1.26845,
2002-04-12, 00:20:00,VALID,916.674,VALID,0,VALID,94.8057,VALID,0,VALID,20.2042,VALID,137,VALID,1.28811,
2002-04-12, 00:21:00,VALID,916.682,VALID,0,VALID,95.2953,VALID,0,VALID,20.2238,VALID,144,VALID,1.53078,
2002-04-12, 00:22:00,VALID,916.686,VALID,0,VALID,95.6348,VALID,0.0169808,VALID,20.1975,VALID,145,VALID,1.25239,
2002-04-12, 00:23:00,VALID,916.679,VALID,0,VALID,95.968,VALID,0,VALID,20.159,VALID,145,VALID,1.30695,
2002-04-12, 00:24:00,VALID,916.68,VALID,0,VALID,96.1676,VALID,0,VALID,20.1205,VALID,145,VALID,1.03146,
2002-04-12, 00:25:00,VALID,916.675,VALID,0,VALID,96.2147,VALID,0,VALID,20.0881,VALID,143,VALID,0.826172,
2002-04-12, 00:26:00,VALID,916.691,VALID,0,VALID,96.2884,VALID,-0.0169808,VALID,20.0623,VALID,138,VALID,0.899916,
2002-04-12, 00:27:00,VALID,916.708,VALID,0,VALID,96.4131,VALID,0.0169808,VALID,20.0787,VALID,133,VALID,0.894848,
2002-04-12, 00:28:00,VALID,916.722,VALID,0,VALID,96.2681,VALID,0,VALID,20.0814,VALID,111,VALID,0.990748,
2002-04-12, 00:29:00,VALID,916.733,VALID,0,VALID,96.1842,VALID,0,VALID,20.1172,VALID,112,VALID,1.24327,
2002-04-12, 00:30:00,VALID,916.739,VALID,0,VALID,95.982,VALID,0,VALID,20.1818,VALID,109,VALID,0.916867,
2002-04-12, 00:31:00,VALID,916.721,VALID,0,VALID,95.556,VALID,0,VALID,20.2559,VALID,107,VALID,0.965993,
2002-04-12, 00:32:00,VALID,916.709,VALID,0,VALID,95.0461,VALID,0,VALID,20.3235,VALID,98,VALID,0.491554,
2002-04-12, 00:33:00,VALID,916.684,VALID,0,VALID,94.423,VALID,0,VALID,20.3329,VALID,76,VALID,0.704564,
2002-04-12, 00:34:00,VALID,916.662,VALID,0,VALID,94.3492,VALID,0.0339617,VALID,20.3625,VALID,82,VALID,0.889992,
2002-04-12, 00:35:00,VALID,916.661,VALID,0,VALID,94.4904,VALID,0.0169808,VALID,20.418,VALID,91,VALID,1.24527,
2002-04-12, 00:36:00,VALID,916.648,VALID,0,VALID,94.7307,VALID,0.0169808,VALID,20.4918,VALID,95,VALID,0.926883,
2002-04-12, 00:37:00,VALID,916.651,VALID,0,VALID,94.4688,VALID,0.0339617,VALID,20.5661,VALID,102,VALID,1.22092,
2002-04-12, 00:38:00,VALID,916.649,VALID,0,VALID,94.2335,VALID,0.0339617,VALID,20.6108,VALID,86,VALID,1.35016,
2002-04-12, 00:39:00,VALID,916.677,VALID,0,VALID,94.1013,VALID,0.0509425,VALID,20.6568,VALID,95,VALID,1.50152,
2002-04-12, 00:40:00,VALID,916.671,VALID,0,VALID,94.1712,VALID,0.0679233,VALID,20.6598,VALID,108,VALID,1.11014,
2002-04-12, 00:41:00,VALID,916.652,VALID,0,VALID,94.306,VALID,0.0679233,VALID,20.701,VALID,122,VALID,1.14228,
2002-04-12, 00:42:00,VALID,916.628,VALID,0,VALID,94.1293,VALID,0.0339617,VALID,20.7336,VALID,118,VALID,1.15061,
2002-04-12, 00:43:00,VALID,916.616,VALID,0,VALID,94.1763,VALID,0.0339617,VALID,20.7497,VALID,138,VALID,0.983347,
2002-04-12, 00:44:00,VALID,916.594,VALID,0,VALID,94.1687,VALID,0,VALID,20.7726,VALID,130,VALID,1.21528,
2002-04-12, 00:45:00,VALID,916.592,VALID,0,VALID,94.5794,VALID,0.0339617,VALID,20.7952,VALID,132,VALID,1.11024,
2002-04-12, 00:46:00,VALID,916.582,VALID,0,VALID,94.5145,VALID,0.0169808,VALID,20.8373,VALID,141,VALID,0.988598,
2002-04-12, 00:47:00,VALID,916.574,VALID,0,VALID,94.1712,VALID,0,VALID,20.8704,VALID,161,VALID,1.33889,
2002-04-12, 00:48:00,VALID,916.58,VALID,0,VALID,94.0415,VALID,-0.0169808,VALID,20.8569,VALID,156,VALID,1.34889,
2002-04-12, 00:49:00,VALID,916.586,VALID,0,VALID,93.9144,VALID,-0.0169808,VALID,20.8636,VALID,129,VALID,0.815104,
2002-04-12, 00:50:00,VALID,916.597,VALID,0,VALID,93.7897,VALID,0.0169808,VALID,20.8477,VALID,140,VALID,0.966146,
2002-04-12, 00:51:00,VALID,916.582,VALID,0,VALID,93.7414,VALID,0.0169808,VALID,20.8176,VALID,152,VALID,1.08755,
2002-04-12, 00:52:00,VALID,916.558,VALID,0,VALID,94.0619,VALID,0.0169808,VALID,20.8114,VALID,166,VALID,1.43898,
2002-04-12, 00:53:00,VALID,916.507,VALID,0,VALID,93.8851,VALID,0,VALID,20.8276,VALID,153,VALID,1.31476,
2002-04-12, 00:54:00,VALID,916.499,VALID,0,VALID,93.4922,VALID,0.0339617,VALID,20.8502,VALID,146,VALID,0.897804,
2002-04-12, 00:55:00,VALID,916.487,VALID,0,VALID,93.2875,VALID,0,VALID,20.8343,VALID,146,VALID,1.20826,
2002-04-12, 00:56:00,VALID,916.494,VALID,0,VALID,93.2023,VALID,0,VALID,20.8249,VALID,141,VALID,1.27083,
2002-04-12, 00:57:00,VALID,916.501,VALID,0,VALID,93.2506,VALID,0,VALID,20.8187,VALID,131,VALID,0.971137,
2002-04-12, 00:58:00,VALID,916.5,VALID,0,VALID,93.0624,VALID,0.0169808,VALID,20.7955,VALID,127,VALID,1.11619,
2002-04-12, 00:59:00,VALID,916.507,VALID,0,VALID,92.7445,VALID,0.0169808,VALID,20.7761,VALID,124,VALID,0.938802,
2002-04-12, 01:00:00,VALID,916.505,VALID,0,VALID,92.9721,VALID,0,VALID,20.7888,VALID,140,VALID,1.30526,
2002-04-12, 01:01:00,VALID,916.48,VALID,0,VALID,92.7661,VALID,0,VALID,20.7888,VALID,126,VALID,1.15791,
2002-04-12, 01:02:00,VALID,916.44,VALID,0,VALID,92.686,VALID,-0.0169808,VALID,20.8119,VALID,136,VALID,1.38303,
2002-04-12, 01:03:00,VALID,916.417,VALID,0,VALID,92.3503,VALID,0,VALID,20.8472,VALID,136,VALID,1.13281,
2002-04-12, 01:04:00,VALID,916.394,VALID,0,VALID,92.0273,VALID,0.0169808,VALID,20.8927,VALID,117,VALID,1.07496,
2002-04-12, 01:05:00,VALID,916.379,VALID,0,VALID,91.8556,VALID,0.0169808,VALID,20.9116,VALID,105,VALID,1.39931,
2002-04-12, 01:06:00,VALID,916.357,VALID,0,VALID,91.6039,VALID,0,VALID,20.918,VALID,116,VALID,1.24177,
2002-04-12, 01:07:00,VALID,916.358,VALID,0,VALID,91.6369,VALID,0.0169808,VALID,20.9215,VALID,132,VALID,0.98902,
2002-04-12, 01:08:00,VALID,916.351,VALID,0,VALID,91.7793,VALID,0,VALID,20.9145,VALID,129,VALID,1.23581,
2002-04-12, 01:09:00,VALID,916.33,VALID,0,VALID,91.9014,VALID,0.0169808,VALID,20.8954,VALID,133,VALID,1.60178,
2002-04-12, 01:10:00,VALID,916.335,VALID,0,VALID,91.9446,VALID,0.0169808,VALID,20.8987,VALID,109,VALID,1.64523,
2002-04-12, 01:11:00,VALID,916.313,VALID,0,VALID,91.8951,VALID,0,VALID,20.9051,VALID,120,VALID,1.15303,
2002-04-12, 01:12:00,VALID,916.291,VALID,0,VALID,91.9586,VALID,0,VALID,20.9148,VALID,119,VALID,1.25845,
2002-04-12, 01:13:00,VALID,916.254,VALID,0,VALID,91.937,VALID,0.0169808,VALID,20.9019,VALID,116,VALID,1.13507,
2002-04-12, 01:14:00,VALID,916.221,VALID,0,VALID,92.0718,VALID,-0.0169808,VALID,20.876,VALID,114,VALID,1.16153,
2002-04-12, 01:15:00,VALID,916.204,VALID,0,VALID,92.274,VALID,0,VALID,20.8179,VALID,121,VALID,1.25062,
2002-04-12, 01:16:00,VALID,916.174,VALID,0,VALID,92.7076,VALID,0,VALID,20.7565,VALID,140,VALID,1.53466,
2002-04-12, 01:17:00,VALID,916.137,VALID,0,VALID,92.9098,VALID,0,VALID,20.7083,VALID,144,VALID,1.45812,
2002-04-12, 01:18:00,VALID,916.116,VALID,0,VALID,93.0776,VALID,-0.0169808,VALID,20.6794,VALID,125,VALID,1.40885,
2002-04-12, 01:19:00,VALID,916.104,VALID,0,VALID,93.1565,VALID,0.0339617,VALID,20.6525,VALID,108,VALID,1.55534,
2002-04-12, 01:20:00,VALID,916.1,VALID,0,VALID,93.1349,VALID,0.0169808,VALID,20.6401,VALID,114,VALID,1.4154,
2002-04-12, 01:21:00,VALID,916.067,VALID,0,VALID,93.1972,VALID,0.0339617,VALID,20.6366,VALID,116,VALID,1.69863,
2002-04-12, 01:22:00,VALID,916.043,VALID,0,VALID,93.2417,VALID,0,VALID,20.6208,VALID,122,VALID,1.43533,
2002-04-12, 01:23:00,VALID,916.005,VALID,0,VALID,93.304,VALID,-0.0169808,VALID,20.6078,VALID,136,VALID,1.25884,
2002-04-12, 01:24:00,VALID,915.976,VALID,0,VALID,93.3752,VALID,0,VALID,20.6016,VALID,151,VALID,1.3503,
2002-04-12, 01:25:00,VALID,915.941,VALID,0,VALID,93.1794,VALID,0,VALID,20.6307,VALID,137,VALID,0.759983,
2002-04-12, 01:26:00,VALID,915.918,VALID,0,VALID,93.0357,VALID,0,VALID,20.6208,VALID,139,VALID,0.996622,
2002-04-12, 01:27:00,VALID,915.908,VALID,0,VALID,93.1565,VALID,0,VALID,20.6016,VALID,137,VALID,1.14358,
2002-04-12, 01:28:00,VALID,915.918,VALID,0,VALID,93.201,VALID,0,VALID,20.5852,VALID,136,VALID,1.39864,
2002-04-12, 01:29:00,VALID,915.937,VALID,0,VALID,93.1768,VALID,0,VALID,20.5922,VALID,133,VALID,1.10894,
2002-04-12, 01:30:00,VALID,915.97,VALID,0,VALID,93.2061,VALID,-0.0339617,VALID,20.5822,VALID,125,VALID,1.01603,
2002-04-12, 01:31:00,VALID,915.985,VALID,0,VALID,93.2569,VALID,0,VALID,20.5981,VALID,140,VALID,1.31204,
2002-04-12, 01:32:00,VALID,915.985,VALID,0,VALID,92.789,VALID,-0.0169808,VALID,20.6727,VALID,147,VALID,1.21052,
2002-04-12, 01:33:00,VALID,915.987,VALID,0,VALID,92.1812,VALID,-0.0169808,VALID,20.7468,VALID,135,VALID,1.17023,
2002-04-12, 01:34:00,VALID,915.981,VALID,0,VALID,91.6623,VALID,0,VALID,20.8343,VALID,142,VALID,1.20376,
2002-04-12, 01:35:00,VALID,915.968,VALID,0,VALID,91.1588,VALID,-0.0169808,VALID,20.8895,VALID,154,VALID,1.0405,
2002-04-12, 01:36:00,VALID,915.958,VALID,0,VALID,91.2033,VALID,-0.0169808,VALID,20.8763,VALID,138,VALID,1.05349,
2002-04-12, 01:37:00,VALID,915.922,VALID,0,VALID,91.4322,VALID,0,VALID,20.8636,VALID,144,VALID,1.33095,
2002-04-12, 01:38:00,VALID,915.918,VALID,0,VALID,91.6484,VALID,-0.0339617,VALID,20.8181,VALID,126,VALID,1.17167,
2002-04-12, 01:39:00,VALID,915.902,VALID,0,VALID,91.8187,VALID,-0.0169808,VALID,20.8087,VALID,136,VALID,0.953776,
2002-04-12, 01:40:00,VALID,915.901,VALID,0,VALID,91.6077,VALID,-0.0169808,VALID,20.7796,VALID,153,VALID,1.05278,
2002-04-12, 01:41:00,VALID,915.895,VALID,0,VALID,91.6725,VALID,-0.0339617,VALID,20.7379,VALID,145,VALID,0.703125,
2002-04-12, 01:42:00,VALID,915.884,VALID,0,VALID,91.7908,VALID,-0.0509425,VALID,20.6924,VALID,144,VALID,0.255208,
2002-04-12, 01:43:00,VALID,915.875,VALID,0,VALID,92.0947,VALID,0,VALID,20.6466,VALID,152,VALID,1.22039,
2002-04-12, 01:44:00,VALID,915.859,VALID,0,VALID,92.3872,VALID,-0.0169808,VALID,20.6399,VALID,139,VALID,0.729519,
2002-04-12, 01:45:00,VALID,915.869,VALID,0,VALID,92.3096,VALID,0,VALID,20.6469,VALID,131,VALID,0.754774,
2002-04-12, 01:46:00,VALID,915.876,VALID,0,VALID,92.6288,VALID,-0.0169808,VALID,20.6466,VALID,116,VALID,0.911106,
2002-04-12, 01:47:00,VALID,915.897,VALID,0,VALID,92.8627,VALID,0,VALID,20.6504,VALID,123,VALID,0.87859,
2002-04-12, 01:48:00,VALID,915.912,VALID,0,VALID,92.9937,VALID,-0.0169808,VALID,20.6759,VALID,140,VALID,1.04112,
2002-04-12, 01:49:00,VALID,915.893,VALID,0,VALID,92.6885,VALID,0,VALID,20.7244,VALID,151,VALID,1.07943,
2002-04-12, 01:50:00,VALID,915.881,VALID,0,VALID,92.3261,VALID,0,VALID,20.7664,VALID,147,VALID,0.93129,
2002-04-12, 01:51:00,VALID,915.871,VALID,0,VALID,92.1697,VALID,0.0169808,VALID,20.7987,VALID,131,VALID,0.66659,
2002-04-12, 01:52:00,VALID,915.877,VALID,0,VALID,91.8747,VALID,0.0679233,VALID,20.8168,VALID,83,VALID,0.486909,
2002-04-12, 01:53:00,VALID,915.881,VALID,0,VALID,91.7742,VALID,0.0849042,VALID,20.7872,VALID,98,VALID,0.547081,
2002-04-12, 01:54:00,VALID,915.887,VALID,0,VALID,92.1595,VALID,0.0169808,VALID,20.7815,VALID,124,VALID,0.920186,
2002-04-12, 01:55:00,VALID,915.886,VALID,0,VALID,92.0489,VALID,0.0679233,VALID,20.7845,VALID,113,VALID,0.70148,
2002-04-12, 01:56:00,VALID,915.903,VALID,0,VALID,91.8912,VALID,0.0679233,VALID,20.7912,VALID,112,VALID,0.579928,
2002-04-12, 01:57:00,VALID,915.911,VALID,0,VALID,92.0489,VALID,0.0679233,VALID,20.7745,VALID,129,VALID,0.922092,
2002-04-12, 01:58:00,VALID,915.914,VALID,0,VALID,91.8951,VALID,0.0679233,VALID,20.7678,VALID,107,VALID,0.669271,
2002-04-12, 01:59:00,VALID,915.925,VALID,0,VALID,91.8289,VALID,0.101885,VALID,20.7619,VALID,106,VALID,0.952691,
2002-04-12, 02:00:00,VALID,915.928,VALID,0,VALID,91.8582,VALID,0.0679233,VALID,20.739,VALID,133,VALID,0.93045,
2002-04-12, 02:01:00,VALID,915.92,VALID,0,VALID,91.9828,VALID,0.0679233,VALID,20.7398,VALID,143,VALID,0.894176,
2002-04-12, 02:02:00,VALID,915.913,VALID,0,VALID,91.9446,VALID,0.0849042,VALID,20.7328,VALID,154,VALID,0.710286,
2002-04-12, 02:03:00,VALID,915.914,VALID,0,VALID,91.9446,VALID,0.0509425,VALID,20.7099,VALID,173,VALID,0.494243,
2002-04-12, 02:04:00,VALID,915.935,VALID,0,VALID,92.1163,VALID,0.101885,VALID,20.6774,VALID,167,VALID,0.0709459,
2002-04-12, 02:05:00,VALID,915.945,VALID,0,VALID,92.2905,VALID,0.0849042,VALID,20.6553,VALID,137,VALID,0.0753038,
2002-04-12, 02:06:00,VALID,915.956,VALID,0,VALID,92.363,VALID,0.101885,VALID,20.6133,VALID,179,VALID,0.306166,
2002-04-12, 02:07:00,VALID,915.945,VALID,0,VALID,92.5118,VALID,0.0339617,VALID,20.5362,VALID,225,VALID,0.190245,
2002-04-12, 02:08:00,VALID,915.935,VALID,0,VALID,92.7661,VALID,-0.0169808,VALID,20.4565,VALID,216,VALID,0.55222,
2002-04-12, 02:09:00,VALID,915.893,VALID,0,VALID,93.2328,VALID,0,VALID,20.3625,VALID,225,VALID,0.528646,
2002-04-12, 02:10:00,VALID,915.869,VALID,0,VALID,93.7592,VALID,0,VALID,20.2589,VALID,233,VALID,0.42508,
2002-04-12, 02:11:00,VALID,915.848,VALID,0,VALID,94.1801,VALID,0,VALID,20.188,VALID,233,VALID,0.0174632,
2002-04-12, 02:12:00,VALID,915.85,VALID,0,VALID,94.4967,VALID,0,VALID,20.1398,VALID,233,VALID,0,
2002-04-12, 02:13:00,VALID,915.859,VALID,0,VALID,94.6379,VALID,0.0169808,VALID,20.0752,VALID,233,VALID,0,
2002-04-12, 02:14:00,VALID,915.862,VALID,0,VALID,94.6786,VALID,0,VALID,20.0036,VALID,233,VALID,0.00591216,
2002-04-12, 02:15:00,VALID,915.856,VALID,0,VALID,94.4764,VALID,0,VALID,19.9072,VALID,233,VALID,0,
2002-04-12, 02:16:00,VALID,915.85,VALID,0,VALID,94.6875,VALID,-0.0169808,VALID,19.8429,VALID,233,VALID,0,
2002-04-12, 02:17:00,VALID,915.85,VALID,0,VALID,95.0512,VALID,-0.0169808,VALID,19.8071,VALID,233,VALID,0,
2002-04-12, 02:18:00,VALID,915.842,VALID,0,VALID,95.1033,VALID,-0.0169808,VALID,19.7425,VALID,233,VALID,0.163862,
2002-04-12, 02:19:00,VALID,915.824,VALID,0,VALID,95.1949,VALID,0,VALID,19.6843,VALID,233,VALID,0,
2002-04-12, 02:20:00,VALID,915.818,VALID,0,VALID,95.528,VALID,-0.0169808,VALID,19.6612,VALID,233,VALID,0.000952744,
2002-04-12, 02:21:00,VALID,915.792,VALID,0,VALID,96.0278,VALID,-0.0169808,VALID,19.6935,VALID,233,VALID,0,
2002-04-12, 02:22:00,VALID,915.801,VALID,0,VALID,96.1511,VALID,-0.0169808,VALID,19.7002,VALID,233,VALID,0,
2002-04-12, 02:23:00,VALID,915.826,VALID,0,VALID,96.0596,VALID,0,VALID,19.6612,VALID,233,VALID,0,
2002-04-12, 02:24:00,VALID,915.844,VALID,0,VALID,96.0964,VALID,-0.0169808,VALID,19.6224,VALID,238,VALID,0.0943834,
2002-04-12, 02:25:00,VALID,915.852,VALID,0,VALID,95.837,VALID,0,VALID,19.5708,VALID,357,VALID,0.440321,
2002-04-12, 02:26:00,VALID,915.861,VALID,0,VALID,95.9947,VALID,0,VALID,19.5029,VALID,358,VALID,0.758024,
2002-04-12, 02:27:00,VALID,915.871,VALID,0,VALID,96.7221,VALID,0.0169808,VALID,19.5519,VALID,359,VALID,0.800676,
2002-04-12, 02:28:00,VALID,915.89,VALID,0,VALID,97.0857,VALID,-0.0169808,VALID,19.5839,VALID,6,VALID,0.89412,
2002-04-12, 02:29:00,VALID,915.916,VALID,0,VALID,97.2027,VALID,0,VALID,19.5996,VALID,5,VALID,0.599175,
2002-04-12, 02:30:00,VALID,915.915,VALID,0,VALID,97.2561,VALID,0,VALID,19.6227,VALID,4,VALID,0.117989,
2002-04-12, 02:31:00,VALID,915.934,VALID,0,VALID,97.2307,VALID,-0.0169808,VALID,19.613,VALID,4,VALID,0.00229779,
2002-04-12, 02:32:00,VALID,915.941,VALID,0,VALID,97.3197,VALID,0,VALID,19.6326,VALID,4,VALID,0,
2002-04-12, 02:33:00,VALID,915.934,VALID,0,VALID,97.5626,VALID,-0.0169808,VALID,19.6774,VALID,71,VALID,0.185033,
2002-04-12, 02:34:00,VALID,915.906,VALID,0,VALID,97.602,VALID,0,VALID,19.7134,VALID,97,VALID,0.433277,
2002-04-12, 02:35:01,VALID,915.892,VALID,0,VALID,97.5232,VALID,0,VALID,19.7678,VALID,87,VALID,0.604852,
2002-04-12, 02:36:00,VALID,915.896,VALID,0,VALID,97.2701,VALID,0.0169808,VALID,19.7778,VALID,95,VALID,0.529247,
2002-04-12, 02:37:00,VALID,915.909,VALID,0,VALID,97.4087,VALID,0.0169808,VALID,19.8133,VALID,97,VALID,0.558594,
2002-04-12, 02:38:00,VALID,915.922,VALID,0,VALID,97.1264,VALID,0,VALID,19.8359,VALID,96,VALID,0.614583,
2002-04-12, 02:39:00,VALID,915.945,VALID,0,VALID,96.8861,VALID,0,VALID,19.826,VALID,94,VALID,0.684462,
2002-04-12, 02:40:01,VALID,915.959,VALID,0,VALID,97.0349,VALID,0,VALID,19.8389,VALID,127,VALID,0.736281,
2002-04-12, 02:41:00,VALID,915.948,VALID,0,VALID,97.3146,VALID,-0.0169808,VALID,19.9129,VALID,123,VALID,0.719223,
2002-04-12, 02:42:00,VALID,915.957,VALID,0,VALID,97.2841,VALID,-0.0169808,VALID,19.9977,VALID,126,VALID,0.884332,
2002-04-12, 02:43:00,VALID,915.962,VALID,0,VALID,97.026,VALID,0,VALID,20.0427,VALID,125,VALID,0.467311,
2002-04-12, 02:44:00,VALID,915.974,VALID,0,VALID,96.9064,VALID,0,VALID,20.0782,VALID,121,VALID,0.570735,
2002-04-12, 02:45:01,VALID,915.994,VALID,0,VALID,96.6699,VALID,0,VALID,20.1006,VALID,93,VALID,0.625651,
2002-04-12, 02:46:00,VALID,916.017,VALID,0,VALID,95.8319,VALID,0,VALID,20.0427,VALID,43,VALID,1.13345,
2002-04-12, 02:47:00,VALID,916.046,VALID,0,VALID,95.5598,VALID,0,VALID,19.9457,VALID,28,VALID,2.019,
2002-04-12, 02:48:00,VALID,916.098,VALID,0,VALID,96.0557,VALID,0,VALID,19.9105,VALID,31,VALID,1.61266,
2002-04-12, 02:49:00,VALID,916.097,VALID,0,VALID,96.2058,VALID,0,VALID,19.8553,VALID,29,VALID,1.43381,
2002-04-12, 02:50:01,VALID,916.107,VALID,0,VALID,96.6814,VALID,0.0169808,VALID,19.8292,VALID,41,VALID,1.45693,
2002-04-12, 02:51:00,VALID,916.09,VALID,0,VALID,97.0921,VALID,0,VALID,19.8714,VALID,52,VALID,1.36696,
2002-04-12, 02:52:00,VALID,916.085,VALID,0,VALID,97.1506,VALID,0.0169808,VALID,19.9072,VALID,54,VALID,0.75359,
2002-04-12, 02:53:00,VALID,916.09,VALID,0,VALID,97.1569,VALID,0,VALID,19.9326,VALID,70,VALID,1.08277,
2002-04-12, 02:54:00,VALID,916.085,VALID,0,VALID,97.1061,VALID,0,VALID,19.9713,VALID,60,VALID,0.945524,
2002-04-12, 02:55:01,VALID,916.082,VALID,0,VALID,96.956,VALID,0,VALID,20.0002,VALID,55,VALID,0.652755,
2002-04-12, 02:56:01,VALID,916.099,VALID,0,VALID,96.839,VALID,0,VALID,20.0171,VALID,58,VALID,0.550681,
2002-04-12, 02:57:00,VALID,916.102,VALID,0,VALID,96.7399,VALID,0,VALID,20.0168,VALID,73,VALID,0.365451,
2002-04-12, 02:58:00,VALID,916.1,VALID,0,VALID,96.7017,VALID,0,VALID,20.0098,VALID,78,VALID,0.455329,
2002-04-12, 02:59:00,VALID,916.112,VALID,0,VALID,96.7221,VALID,0.0169808,VALID,20.0002,VALID,89,VALID,0.720269,
2002-04-12, 03:00:01,VALID,916.119,VALID,0,VALID,96.7602,VALID,0,VALID,19.9972,VALID,100,VALID,0.810594,
2002-04-12, 03:01:00,VALID,916.124,VALID,0,VALID,96.8975,VALID,0,VALID,20.0104,VALID,100,VALID,0.765388,
2002-04-12, 03:02:01,VALID,916.114,VALID,0,VALID,96.9382,VALID,-0.0169808,VALID,20.023,VALID,99,VALID,0.801649,
2002-04-12, 03:03:00,VALID,916.102,VALID,0,VALID,96.792,VALID,-0.0339617,VALID,20.0491,VALID,99,VALID,0.584293,
2002-04-12, 03:04:00,VALID,916.075,VALID,0,VALID,96.6839,VALID,0,VALID,20.0588,VALID,99,VALID,0.368243,
2002-04-12, 03:05:01,VALID,916.055,VALID,0,VALID,96.628,VALID,-0.0169808,VALID,20.0683,VALID,99,VALID,0,
2002-04-12, 03:06:00,VALID,916.052,VALID,0,VALID,96.5987,VALID,-0.0169808,VALID,20.0847,VALID,99,VALID,0,
2002-04-12, 03:07:00,VALID,916.063,VALID,0,VALID,96.4576,VALID,-0.0339617,VALID,20.0685,VALID,66,VALID,0.184755,
2002-04-12, 03:08:00,VALID,916.076,VALID,0,VALID,96.2719,VALID,-0.0169808,VALID,20.0524,VALID,56,VALID,0.299342,
2002-04-12, 03:09:00,VALID,916.076,VALID,0,VALID,96.0748,VALID,0,VALID,20.0104,VALID,56,VALID,0.380208,
2002-04-12, 03:10:01,VALID,916.054,VALID,0,VALID,96.1053,VALID,-0.0169808,VALID,19.9713,VALID,56,VALID,0.320713,
2002-04-12, 03:11:00,VALID,916.032,VALID,0,VALID,96.3253,VALID,0,VALID,19.9689,VALID,56,VALID,0.263787,
2002-04-12, 03:12:00,VALID,916.009,VALID,0,VALID,96.5669,VALID,-0.0509425,VALID,19.9813,VALID,56,VALID,0.0884713,
2002-04-12, 03:13:00,VALID,916.004,VALID,0,VALID,96.5415,VALID,-0.0169808,VALID,19.985,VALID,56,VALID,0,
2002-04-12, 03:14:00,VALID,916.02,VALID,0,VALID,96.5059,VALID,-0.0339617,VALID,19.985,VALID,58,VALID,0.130279,
2002-04-12, 03:15:01,VALID,916.038,VALID,0,VALID,96.4906,VALID,-0.0169808,VALID,19.9619,VALID,59,VALID,0.0402961,
2002-04-12, 03:16:00,VALID,916.05,VALID,0,VALID,96.3825,VALID,0,VALID,19.9395,VALID,59,VALID,0,
2002-04-12, 03:17:01,VALID,916.057,VALID,0,VALID,96.3749,VALID,0,VALID,19.9037,VALID,59,VALID,0,
2002-04-12, 03:18:00,VALID,916.042,VALID,0,VALID,96.3711,VALID,-0.0169808,VALID,19.8744,VALID,59,VALID,0,
2002-04-12, 03:19:00,VALID,916.019,VALID,0,VALID,96.5606,VALID,0,VALID,19.8779,VALID,59,VALID,0.00759549,
2002-04-12, 03:20:01,VALID,915.999,VALID,0,VALID,96.5224,VALID,-0.0169808,VALID,19.8615,VALID,59,VALID,0,
2002-04-12, 03:21:00,VALID,916.009,VALID,0,VALID,96.4461,VALID,0,VALID,19.8456,VALID,59,VALID,0,
2002-04-12, 03:22:01,VALID,916.033,VALID,0,VALID,96.3914,VALID,0,VALID,19.813,VALID,59,VALID,0,
2002-04-12, 03:23:01,VALID,916.069,VALID,0,VALID,96.324,VALID,0,VALID,19.7782,VALID,59,VALID,0,
2002-04-12, 03:24:00,VALID,916.078,VALID,0,VALID,96.5377,VALID,0,VALID,19.7549,VALID,54,VALID,0,
2002-04-12, 03:25:01,VALID,916.078,VALID,0,VALID,96.7895,VALID,-0.0169808,VALID,19.7745,VALID,356,VALID,0.0885417,
2002-04-12, 03:26:00,VALID,916.059,VALID,0,VALID,96.9306,VALID,0,VALID,19.7909,VALID,317,VALID,0.280828,
2002-04-12, 03:27:00,VALID,916.019,VALID,0,VALID,97.1404,VALID,0,VALID,19.8262,VALID,261,VALID,0.513936,
2002-04-12, 03:28:00,VALID,915.983,VALID,0,VALID,97.2828,VALID,-0.0169808,VALID,19.8588,VALID,252,VALID,0.628906,
2002-04-12, 03:29:00,VALID,915.957,VALID,0,VALID,97.3261,VALID,0,VALID,19.8811,VALID,248,VALID,0.951606,
2002-04-12, 03:30:01,VALID,915.936,VALID,0,VALID,97.3782,VALID,0,VALID,19.9003,VALID,244,VALID,0.985577,
2002-04-12, 03:31:00,VALID,915.947,VALID,0,VALID,97.3362,VALID,0,VALID,19.9037,VALID,246,VALID,0.743796,
2002-04-12, 03:32:00,VALID,915.974,VALID,0,VALID,97.2968,VALID,-0.0169808,VALID,19.8878,VALID,250,VALID,0.270904,
2002-04-12, 03:33:00,VALID,915.988,VALID,0,VALID,97.354,VALID,-0.0169808,VALID,19.8779,VALID,232,VALID,0.439556,
2002-04-12, 03:34:00,VALID,916.003,VALID,0,VALID,97.4443,VALID,-0.0169808,VALID,19.8781,VALID,225,VALID,0.3731,
2002-04-12, 03:35:01,VALID,916.029,VALID,0,VALID,97.3986,VALID,-0.0339617,VALID,19.8719,VALID,210,VALID,0.471628,
2002-04-12, 03:36:00,VALID,916.02,VALID,0,VALID,97.4087,VALID,0,VALID,19.8493,VALID,238,VALID,0.747196,
2002-04-12, 03:37:01,VALID,916.013,VALID,0,VALID,97.4431,VALID,0,VALID,19.8232,VALID,259,VALID,0.5102,